Find Starlink 11571

NORAD ID: 62986 Int'l Des: 2025-031 Owner: SPXS Country: US Constellation: starlink operational
別名: STARLINK-11571 [DTC] celestrak
LEOCIRCULAR

現在のビュー

3D地球を読み込み中...

About Starlink 11571

Starlink 11571 (NORAD 62986) is a starlink constellation satellite (v2 mini d2c) launched Feb 11, 2025 by SPXS of US. It operates in LEO, CIRCULAR orbit with a mass of 960.00 kg.

次回通過

Passes for default location (London). Set your location on the main map for personalized predictions.

高度履歴

Loading altitude history...

軌道要素

1 62986U 25031F 26263.48668057 .00152994 00000-0 11730-2 0 9999
2 62986 42.9991 266.8645 0001163 262.7047 97.3688 15.70860901 93384
Epoch: Sep 20, 2026 • Age: 8 hours

現在のステータス

高度 358.4 km
遠地点 / 近地点 N/A
速度 7.70 km/s
衛星直下点 -13.13°S, 37.54°W
打ち上げ日 Feb 11, 2025
運用期間 1.6 years
タイプ internet

技術仕様

分類 Payload
質量 960.00 kg
乾燥質量 910.00 kg
長さ 0.30 m
スパン 29.00 m
形状 ? Box + pan
製造者 SPXS
バスタイプ Starlink V2MD
フェーズステータス In Orbit
所有者/国 SPXS/US

Most Searched